IZ3LCH-13 Weather Reports


time (UTC)temp
F
wind
direction
speed
knots
gust
knots
rain 1hr
in
rain 24hr
in
rain mn
in
humidity
%
barometer
mb
20260503022003 50 67 0.0 1.7 0.00 0.00 0.00 68 1019.1
20260503021503 50 118 0.9 2.6 0.00 0.00 0.00 68 1019.2
20260503021003 50 109 0.9 2.6 0.00 0.00 0.00 67 1019.1
20260503020503 50 85 0.9 1.7 0.00 0.00 0.00 67 1019.1
20260503020003 51 51 0.9 1.7 0.00 0.00 0.00 67 1019.1
20260503015503 51 57 0.9 1.7 0.00 0.00 0.00 66 1019.0
20260503015003 51 70 0.9 2.6 0.00 0.00 0.00 66 1019.1
20260503014503 51 31 1.7 2.6 0.00 0.00 0.00 66 1019.1
20260503014003 52 19 1.7 2.6 0.00 0.00 0.00 65 1019.2
20260503013503 52 26 1.7 2.6 0.00 0.00 0.00 65 1019.1
20260503013003 52 43 0.9 2.6 0.00 0.00 0.00 65 1019.0
20260503012503 52 69 0.0 1.7 0.00 0.00 0.00 65 1019.1
20260503012003 53 103 0.0 1.7 0.00 0.00 0.00 65 1019.1
20260503011503 53 52 0.9 1.7 0.00 0.00 0.00 64 1019.2
20260503011003 53 53 0.9 1.7 0.00 0.00 0.00 64 1019.1
20260503010503 53 273 0.0 1.7 0.00 0.00 0.00 64 1019.2
20260503010003 53 247 0.0 1.7 0.00 0.00 0.00 63 1019.2
20260503005503 54 172 0.0 1.7 0.00 0.00 0.00 63 1019.3
20260503005003 54 143 0.9 1.7 0.00 0.00 0.00 62 1019.3
20260503004503 54 127 0.9 1.7 0.00 0.00 0.00 62 1019.3
20260503004003 54 177 0.9 1.7 0.00 0.00 0.00 62 1019.4
20260503003503 54 188 0.9 1.7 0.00 0.00 0.00 62 1019.1
20260503003003 54 171 0.9 1.7 0.00 0.00 0.00 62 1019.3
20260503002503 54 200 1.7 3.5 0.00 0.00 0.00 62 1019.2
20260503002003 54 213 1.7 3.5 0.00 0.00 0.00 62 1019.5
20260503001503 54 210 1.7 1.7 0.00 0.00 0.00 62 1019.3
20260503001003 54 213 1.7 3.5 0.00 0.00 0.00 62 1019.3
20260503000503 54 218 1.7 4.3 0.00 0.00 0.00 62 1019.4
20260503000003 54 218 1.7 4.3 0.00 0.00 0.00 62 1019.6
20260502235503 54 206 1.7 3.5 0.00 0.00 0.00 62 1019.8
20260502235003 54 174 1.7 2.6 0.00 0.00 0.00 62 1019.7
20260502234503 55 161 1.7 2.6 0.00 0.00 0.00 61 1019.7
20260502234003 55 164 1.7 2.6 0.00 0.00 0.00 61 1019.9
20260502233503 55 168 0.9 1.7 0.00 0.00 0.00 61 1019.8
20260502233003 56 179 0.9 1.7 0.00 0.00 0.00 61 1019.8
20260502232503 56 194 1.7 2.6 0.00 0.00 0.00 60 1020.0
20260502232003 56 195 1.7 2.6 0.00 0.00 0.00 60 1019.9
20260502231503 56 200 1.7 3.5 0.00 0.00 0.00 60 1019.8
20260502231003 56 215 1.7 3.5 0.00 0.00 0.00 60 1019.9
20260502230503 56 223 2.6 3.5 0.00 0.00 0.00 60 1020.0
20260502230003 56 223 1.7 3.5 0.00 0.00 0.00 61 1019.9
20260502225503 56 226 0.9 2.6 0.00 0.00 0.00 61 1020.0
20260502225003 56 215 0.9 2.6 0.00 0.00 0.00 61 1020.0
20260502224503 56 189 0.9 1.7 0.00 0.00 0.00 60 1020.0
20260502224003 56 182 1.7 2.6 0.00 0.00 0.00 60 1019.7
20260502223503 56 199 1.7 2.6 0.00 0.00 0.00 60 1020.0
20260502223004 56 199 1.7 2.6 0.00 0.00 0.00 60 1020.1
20260502222503 56 196 1.7 2.6 0.00 0.00 0.00 59 1020.3
20260502222003 56 202 1.7 2.6 0.00 0.00 0.00 59 1020.2
20260502221503 56 200 1.7 2.6 0.00 0.00 0.00 59 1020.2
20260502221003 56 204 1.7 2.6 0.00 0.00 0.00 60 1020.3
20260502220503 56 196 1.7 2.6 0.00 0.00 0.00 59 1020.1
20260502220003 56 193 1.7 2.6 0.00 0.00 0.00 59 1020.1
20260502215503 56 196 0.9 2.6 0.00 0.00 0.00 59 1020.2
20260502215003 57 198 0.9 3.5 0.00 0.00 0.00 59 1020.2
20260502214503 57 213 1.7 3.5 0.00 0.00 0.00 59 1020.1
20260502214003 57 221 1.7 3.5 0.00 0.00 0.00 60 1020.2
20260502213503 57 225 1.7 2.6 0.00 0.00 0.00 60 1020.1
20260502213003 57 209 1.7 2.6 0.00 0.00 0.00 60 1020.3
20260502212503 57 170 1.7 2.6 0.00 0.00 0.00 59 1020.1
20260502212004 57 156 1.7 1.7 0.00 0.00 0.00 58 1020.2
20260502211503 57 159 1.7 2.6 0.00 0.00 0.00 58 1020.2
20260502211003 58 170 1.7 2.6 0.00 0.00 0.00 57 1020.2
20260502210503 58 191 1.7 2.6 0.00 0.00 0.00 57 1020.2
20260502210003 58 217 0.9 2.6 0.00 0.00 0.00 57 1020.4
20260502205503 59 215 0.9 2.6 0.00 0.00 0.00 57 1020.1
20260502205003 59 203 0.9 1.7 0.00 0.00 0.00 56 1020.2
20260502204503 59 222 0.9 2.6 0.00 0.00 0.00 56 1020.5
20260502204003 59 226 1.7 2.6 0.00 0.00 0.00 56 1020.4
20260502203503 59 221 1.7 2.6 0.00 0.00 0.00 55 1020.5
20260502203003 59 223 1.7 2.6 0.00 0.00 0.00 55 1020.2
20260502202503 60 222 0.9 1.7 0.00 0.00 0.00 54 1020.3
20260502202003 60 213 0.9 1.7 0.00 0.00 0.00 54 1020.6
20260502201503 60 211 0.9 2.6 0.00 0.00 0.00 53 1020.2
20260502201003 60 214 0.9 2.6 0.00 0.00 0.00 52 1020.3
20260502200503 61 224 0.9 1.7 0.00 0.00 0.00 52 1020.3
20260502200003 61 247 0.9 1.7 0.00 0.00 0.00 51 1020.6
20260502195503 62 273 0.9 1.7 0.00 0.00 0.00 51 1020.4
20260502195003 62 280 0.9 1.7 0.00 0.00 0.00 51 1020.2
20260502194503 62 243 0.9 2.6 0.00 0.00 0.00 50 1020.2
20260502194003 63 211 0.9 3.5 0.00 0.00 0.00 49 1020.2
20260502193503 63 176 1.7 3.5 0.00 0.00 0.00 49 1020.3
20260502193003 63 162 1.7 2.6 0.00 0.00 0.00 48 1020.2
20260502192503 64 170 1.7 2.6 0.00 0.00 0.00 47 1020.3
20260502192003 64 168 0.9 2.6 0.00 0.00 0.00 47 1020.1
20260502191503 64 160 0.9 2.6 0.00 0.00 0.00 47 1020.3
20260502191003 64 160 1.7 2.6 0.00 0.00 0.00 46 1020.0
20260502190503 65 162 1.7 3.5 0.00 0.00 0.00 46 1020.1
20260502190004 65 161 1.7 3.5 0.00 0.00 0.00 46 1020.0
20260502185503 65 158 1.7 2.6 0.00 0.00 0.00 45 1019.9
20260502185003 66 159 1.7 3.5 0.00 0.00 0.00 45 1020.1
20260502184503 66 161 1.7 3.5 0.00 0.00 0.00 44 1020.0
20260502184003 67 163 1.7 2.6 0.00 0.00 0.00 43 1020.2
20260502183503 68 170 0.9 2.6 0.00 0.00 0.00 43 1020.0
20260502183003 68 178 0.9 2.6 0.00 0.00 0.00 42 1020.0
20260502182503 69 187 1.7 3.5 0.00 0.00 0.00 41 1019.7
20260502182003 69 191 1.7 3.5 0.00 0.00 0.00 41 1019.9
20260502181503 69 191 2.6 3.5 0.00 0.00 0.00 41 1020.1
20260502181003 70 187 2.6 3.5 0.00 0.00 0.00 40 1019.9
20260502180503 70 182 2.6 3.5 0.00 0.00 0.00 40 1019.9
20260502170503 72 222 3.5 7.8 0.00 0.00 0.00 37 1019.9
20260502164003 74 197 2.6 8.7 0.00 0.00 0.00 35 1020.0
20260502163503 74 195 3.5 8.7 0.00 0.00 0.00 35 1020.0
20260502163003 74 190 3.5 7.8 0.00 0.00 0.00 35 1020.2
20260502162503 74 190 2.6 7.0 0.00 0.00 0.00 35 1020.1
20260502162003 74 207 3.5 7.8 0.00 0.00 0.00 35 1020.1
20260502161503 74 220 5.2 11.3 0.00 0.00 0.00 35 1020.1
20260502161003 74 215 4.3 11.3 0.00 0.00 0.00 35 1020.4
20260502160503 74 228 4.3 10.4 0.00 0.00 0.00 35 1020.4
20260502152003 75 219 4.3 11.3 0.00 0.00 0.00 33 1020.8
20260502151503 76 218 4.3 9.6 0.00 0.00 0.00 34 1020.6
20260502151003 76 222 4.3 10.4 0.00 0.00 0.00 32 1020.7
20260502150503 76 210 4.3 10.4 0.00 0.00 0.00 33 1021.0
20260502130503 75 225 6.1 13.0 0.00 0.00 0.00 33 1022.4
20260502123503 75 177 4.3 10.4 0.00 0.00 0.00 34 1022.9
20260502123003 75 184 4.3 10.4 0.00 0.00 0.00 33 1022.6
20260502122503 75 187 4.3 11.3 0.00 0.00 0.00 33 1022.9
20260502122003 75 181 3.5 11.3 0.00 0.00 0.00 33 1022.9
20260502121503 75 195 3.5 13.0 0.00 0.00 0.00 36 1023.1
20260502121003 75 206 5.2 13.0 0.00 0.00 0.00 33 1023.2
20260502120503 75 190 5.2 12.2 0.00 0.00 0.00 33 1023.1
20260502115503 75 188 4.3 11.3 0.00 0.00 0.00 34 1023.1
20260502115003 75 208 4.3 11.3 0.00 0.00 0.00 34 1023.2
20260502114503 75 234 6.1 15.6 0.00 0.00 0.00 34 1023.3
20260502114008 75 228 6.1 15.6 0.00 0.00 0.00 34 1023.3
20260502113503 75 172 5.2 10.4 0.00 0.00 0.00 34 1023.2
20260502113003 74 180 4.3 10.4 0.00 0.00 0.00 38 1023.5
20260502112503 74 225 3.5 11.3 0.00 0.00 0.00 36 1023.5
20260502112003 74 210 4.3 12.2 0.00 0.00 0.00 35 1023.8
20260502111503 74 199 5.2 12.2 0.00 0.00 0.00 33 1023.6
20260502111003 74 213 5.2 14.8 0.00 0.00 0.00 36 1023.7
20260502110503 74 224 5.2 14.8 0.00 0.00 0.00 34 1023.9
20260502110003 74 198 4.3 10.4 0.00 0.00 0.00 35 1023.7
20260502105503 74 176 4.3 10.4 0.00 0.00 0.00 35 1024.0
20260502105003 73 202 4.3 14.8 0.00 0.00 0.00 36 1024.1
20260502104503 74 227 4.3 14.8 0.00 0.00 0.00 33 1024.0
20260502103503 74 217 3.5 12.2 0.00 0.00 0.00 34 1024.2
20260502103003 73 216 3.5 11.3 0.00 0.00 0.00 35 1024.2
20260502102503 72 218 5.2 13.0 0.00 0.00 0.00 35 1024.5
20260502102003 72 215 4.3 13.0 0.00 0.00 0.00 33 1024.5
20260502101504 72 221 3.5 6.1 0.00 0.00 0.00 34 1024.3
20260502101003 72 226 4.3 13.9 0.00 0.00 0.00 35 1024.6
20260502100503 73 233 4.3 13.9 0.00 0.00 0.00 34 1024.5
20260502091503 71 253 1.7 4.3 0.00 0.00 0.00 42 1024.9
20260502091003 70 316 0.9 4.3 0.00 0.00 0.00 42 1025.1
20260502090503 70 275 0.9 4.3 0.00 0.00 0.00 42 1025.0
20260502071503 62 6 3.5 7.0 0.00 0.00 0.00 50 1025.4
20260502071003 62 7 3.5 6.1 0.00 0.00 0.00 51 1025.5
20260502070503 61 12 3.5 7.0 0.00 0.00 0.00 52 1025.7
20260502070003 61 11 4.3 7.0 0.00 0.00 0.00 53 1025.7
20260502065503 60 3 3.5 7.0 0.00 0.00 0.00 54 1025.7
20260502065003 60 2 3.5 5.2 0.00 0.00 0.00 55 1025.6
20260502064503 59 4 3.5 6.1 0.00 0.00 0.00 55 1025.5
20260502064003 59 6 3.5 6.1 0.00 0.00 0.00 55 1025.4
20260502063503 58 9 2.6 5.2 0.00 0.00 0.00 57 1025.7
20260502063003 57 8 2.6 5.2 0.00 0.00 0.00 59 1025.8
20260502062503 57 8 2.6 5.2 0.00 0.00 0.00 59 1025.7
20260502062003 56 5 2.6 5.2 0.00 0.00 0.00 60 1025.8
20260502061503 56 1 2.6 5.2 0.00 0.00 0.00 60 1025.7
20260502061003 55 359 3.5 5.2 0.00 0.00 0.00 61 1025.9
20260502060503 55 357 3.5 5.2 0.00 0.00 0.00 62 1025.8
20260502060003 54 353 2.6 5.2 0.00 0.00 0.00 63 1025.5
20260502055503 53 356 2.6 5.2 0.00 0.00 0.00 64 1025.7
20260502055003 52 1 2.6 4.3 0.00 0.00 0.00 65 1025.9
20260502054503 52 2 2.6 4.3 0.00 0.00 0.00 66 1025.7
20260502054003 51 3 2.6 3.5 0.00 0.00 0.00 66 1025.7
20260502053503 50 8 2.6 3.5 0.00 0.00 0.00 67 1025.7
20260502053003 49 11 1.7 3.5 0.00 0.00 0.00 68 1026.0
20260502052503 49 360 0.9 1.7 0.00 0.00 0.00 69 1026.1
20260502052003 48 5 0.9 1.7 0.00 0.00 0.00 70 1025.9
20260502051503 48 350 0.9 2.6 0.00 0.00 0.00 70 1025.7
20260502051003 47 297 0.9 2.6 0.00 0.00 0.00 70 1025.7
20260502050503 47 289 1.7 2.6 0.00 0.00 0.00 70 1025.5
20260502050003 46 283 1.7 2.6 0.00 0.00 0.00 71 1025.7
20260502045503 46 264 1.7 3.5 0.00 0.00 0.00 70 1025.8
20260502045003 46 254 1.7 3.5 0.00 0.00 0.00 70 1025.8
20260502044504 46 249 1.7 3.5 0.00 0.00 0.00 70 1025.5
20260502044003 45 250 1.7 3.5 0.00 0.00 0.00 70 1025.5
20260502043503 45 256 1.7 2.6 0.00 0.00 0.00 70 1025.7
20260502043003 45 268 0.9 2.6 0.00 0.00 0.00 70 1025.7
20260502042503 45 307 0.0 1.7 0.00 0.00 0.00 70 1025.7
20260502042003 45 288 0.9 3.5 0.00 0.00 0.00 70 1025.5
20260502041503 45 276 1.7 3.5 0.00 0.00 0.00 70 1025.8
20260502041003 45 285 1.7 3.5 0.00 0.00 0.00 70 1025.7
20260502040503 45 288 1.7 2.6 0.00 0.00 0.00 70 1025.6
20260502040003 45 282 1.7 3.5 0.00 0.00 0.00 69 1025.5
20260502035503 45 289 1.7 3.5 0.00 0.00 0.00 69 1025.6
20260502035003 45 301 1.7 2.6 0.00 0.00 0.00 69 1025.7
20260502034503 45 266 1.7 3.5 0.00 0.00 0.00 69 1025.8
20260502034003 45 238 2.6 4.3 0.00 0.00 0.00 69 1025.7
20260502033503 45 225 2.6 5.2 0.00 0.00 0.00 69 1025.6
20260502033003 45 201 1.7 5.2 0.00 0.00 0.00 69 1025.8
20260502032503 45 123 0.9 2.6 0.00 0.00 0.00 68 1025.9
20260502032003 46 68 0.9 2.6 0.00 0.00 0.00 68 1025.7
20260502031503 46 39 0.9 2.6 0.00 0.00 0.00 68 1025.6
20260502031003 46 18 0.0 1.7 0.00 0.00 0.00 68 1025.6
20260502030503 46 270 0.0 1.7 0.00 0.00 0.00 68 1025.5
20260502030003 46 239 0.9 2.6 0.00 0.00 0.00 68 1025.6
20260502025503 46 226 0.9 2.6 0.00 0.00 0.00 68 1025.7
20260502025003 46 213 0.9 2.6 0.00 0.00 0.00 68 1025.8
20260502024503 46 188 0.9 2.6 0.00 0.00 0.00 68 1025.9
20260502024003 46 165 0.0 1.7 0.00 0.00 0.00 67 1025.8
20260502023503 46 173 0.9 1.7 0.00 0.00 0.00 67 1025.9
20260502023003 46 192 0.9 1.7 0.00 0.00 0.00 67 1025.9
20260502022503 47 239 0.0 1.7 0.00 0.00 0.00 66 1025.9